Hourly Weather Al Khiyam

Today, 4 December, Friday

Time Temperature Precipitation Wind Pressure Humidity
00:00 +12°C° 0 mm 4 mps 713 mmHg 69%
01:00 +12°C° 0 mm 4 mps 712 mmHg 69%
02:00 +12°C° 0 mm 4 mps 712 mmHg 69%
03:00 +12°C° 0 mm 4 mps 712 mmHg 68%
04:00 +12°C° 0 mm 4 mps 712 mmHg 67%
05:00 +12°C° 0 mm 4 mps 712 mmHg 66%
06:00 +13°C° 0 mm 4 mps 712 mmHg 65%
07:00 +14°C° 0 mm 4 mps 713 mmHg 64%
08:00 +14°C° 0 mm 4 mps 713 mmHg 62%
09:00 +15°C° 0 mm 4 mps 713 mmHg 59%
10:00 +17°C° 0 mm 4 mps 713 mmHg 56%
11:00 +18°C° 0 mm 4 mps 713 mmHg 52%
12:00 +19°C° 0 mm 4 mps 713 mmHg 51%
13:00 +19°C° 0 mm 4 mps 713 mmHg 49%
14:00 +19°C° 0 mm 4 mps 712 mmHg 48%
15:00 +18°C° 0 mm 4 mps 712 mmHg 52%
16:00 +17°C° 0 mm 3 mps 712 mmHg 56%
17:00 +16°C° 0 mm 3 mps 712 mmHg 61%
18:00 +16°C° 0 mm 3 mps 712 mmHg 61%
19:00 +16°C° 0 mm 3 mps 712 mmHg 61%
20:00 +14°C° 0 mm 3 mps 712 mmHg 61%
21:00 +14°C° 0 mm 3 mps 712 mmHg 60%
22:00 +14°C° 0 mm 3 mps 712 mmHg 59%
23:00 +14°C° 0 mm 3 mps 712 mmHg 59%

Tomorrow, 5 December, Saturday

Time Temperature Precipitation Wind Pressure Humidity
00:00 +14°C° 0 mm 3 mps 712 mmHg 58%
01:00 +14°C° 0 mm 4 mps 711 mmHg 58%
02:00 +13°C° 0 mm 4 mps 711 mmHg 57%
03:00 +13°C° 0.2 mm 4 mps 711 mmHg 60%
04:00 +13°C° 0.2 mm 3 mps 711 mmHg 62%
05:00 +12°C° 0.2 mm 3 mps 711 mmHg 65%
06:00 +13°C° 0.5 mm 3 mps 711 mmHg 66%
07:00 +13°C° 0.5 mm 3 mps 711 mmHg 66%
08:00 +13°C° 0.5 mm 3 mps 711 mmHg 67%
09:00 +14°C° 0.3 mm 3 mps 712 mmHg 64%
10:00 +16°C° 0.3 mm 3 mps 712 mmHg 61%
11:00 +15°C° 0.3 mm 4 mps 712 mmHg 58%
12:00 +17°C° 0.1 mm 3 mps 711 mmHg 56%
13:00 +17°C° 0.1 mm 3 mps 711 mmHg 55%
14:00 +17°C° 0.1 mm 2 mps 711 mmHg 54%
15:00 +16°C° 0.2 mm 2 mps 711 mmHg 60%
16:00 +15°C° 0.2 mm 1 mps 711 mmHg 67%
17:00 +14°C° 0.2 mm 1 mps 711 mmHg 73%
18:00 +14°C° 0.1 mm 1 mps 711 mmHg 74%
19:00 +13°C° 0.1 mm 1 mps 711 mmHg 75%
20:00 +13°C° 0.1 mm 1 mps 711 mmHg 76%
21:00 +12°C° 0 mm 0 mps 711 mmHg 76%
22:00 +12°C° 0 mm 0 mps 711 mmHg 76%
23:00 +11°C° 0 mm 0 mps 711 mmHg 75%

Day after tomorrow, 6 December, Sunday

Time Temperature Precipitation Wind Pressure Humidity
00:00 +11°C° 0 mm 0 mps 711 mmHg 76%
01:00 +11°C° 0 mm 0 mps 711 mmHg 76%
02:00 +11°C° 0 mm 0 mps 711 mmHg 76%
03:00 +10°C° 0 mm 0 mps 711 mmHg 77%
04:00 +10°C° 0 mm 0 mps 711 mmHg 78%
05:00 +10°C° 0 mm 0 mps 711 mmHg 79%
06:00 +11°C° 0 mm 0 mps 712 mmHg 75%
07:00 +12°C° 0 mm 0 mps 712 mmHg 71%
08:00 +14°C° 0 mm 1 mps 712 mmHg 68%
09:00 +15°C° 0 mm 1 mps 712 mmHg 65%
10:00 +15°C° 0 mm 1 mps 713 mmHg 62%
11:00 +16°C° 0 mm 2 mps 713 mmHg 60%
12:00 +16°C° 0 mm 2 mps 712 mmHg 60%
13:00 +17°C° 0 mm 2 mps 712 mmHg 61%
14:00 +17°C° 0 mm 3 mps 712 mmHg 62%
15:00 +16°C° 0 mm 2 mps 712 mmHg 68%
16:00 +15°C° 0 mm 2 mps 712 mmHg 75%
17:00 +14°C° 0 mm 1 mps 712 mmHg 82%
18:00 +13°C° 0 mm 1 mps 712 mmHg 83%
19:00 +13°C° 0 mm 1 mps 712 mmHg 84%
20:00 +12°C° 0 mm 0 mps 712 mmHg 86%
21:00 +12°C° 0 mm 1 mps 712 mmHg 85%
22:00 +12°C° 0 mm 1 mps 713 mmHg 85%
23:00 +12°C° 0 mm 1 mps 713 mmHg 85%

7 December, Monday

Time Temperature Precipitation Wind Pressure Humidity
00:00 +12°C° 0 mm 1 mps 713 mmHg 84%
01:00 +11°C° 0 mm 1 mps 713 mmHg 84%
02:00 +11°C° 0 mm 1 mps 713 mmHg 83%
03:00 +11°C° 0 mm 1 mps 713 mmHg 82%
04:00 +11°C° 0 mm 1 mps 713 mmHg 81%
05:00 +11°C° 0 mm 1 mps 713 mmHg 81%
06:00 +12°C° 0 mm 1 mps 713 mmHg 77%
07:00 +13°C° 0 mm 1 mps 714 mmHg 73%
08:00 +14°C° 0 mm 1 mps 714 mmHg 69%
09:00 +15°C° 0 mm 2 mps 714 mmHg 63%
10:00 +16°C° 0 mm 2 mps 714 mmHg 56%
11:00 +17°C° 0 mm 3 mps 715 mmHg 49%
12:00 +18°C° 0 mm 3 mps 714 mmHg 46%
13:00 +18°C° 0 mm 3 mps 714 mmHg 44%
14:00 +19°C° 0 mm 3 mps 714 mmHg 41%
15:00 +17°C° 0 mm 2 mps 714 mmHg 46%
16:00 +16°C° 0 mm 2 mps 713 mmHg 51%
17:00 +15°C° 0 mm 1 mps 713 mmHg 57%
18:00 +14°C° 0 mm 2 mps 713 mmHg 56%
19:00 +14°C° 0 mm 2 mps 714 mmHg 56%
20:00 +13°C° 0 mm 3 mps 714 mmHg 56%
21:00 +13°C° 0 mm 3 mps 714 mmHg 55%
22:00 +13°C° 0 mm 3 mps 714 mmHg 54%
23:00 +13°C° 0 mm 3 mps 714 mmHg 53%

8 December, Tuesday

Time Temperature Precipitation Wind Pressure Humidity
00:00 +13°C° 0 mm 3 mps 714 mmHg 54%
01:00 +13°C° 0 mm 4 mps 714 mmHg 54%
02:00 +12°C° 0 mm 4 mps 713 mmHg 54%
03:00 +12°C° 0 mm 4 mps 713 mmHg 54%
04:00 +12°C° 0 mm 4 mps 713 mmHg 54%
05:00 +12°C° 0 mm 4 mps 713 mmHg 54%
06:00 +13°C° 0 mm 4 mps 713 mmHg 52%
07:00 +14°C° 0 mm 4 mps 714 mmHg 50%
08:00 +14°C° 0 mm 4 mps 714 mmHg 49%
09:00 +17°C° 0 mm 4 mps 714 mmHg 44%
10:00 +18°C° 0 mm 4 mps 714 mmHg 40%
11:00 +20°C° 0 mm 4 mps 714 mmHg 35%
12:00 +20°C° 0 mm 4 mps 714 mmHg 35%
13:00 +20°C° 0 mm 4 mps 714 mmHg 36%
14:00 +20°C° 0 mm 4 mps 714 mmHg 36%
15:00 +19°C° 0 mm 4 mps 713 mmHg 40%
16:00 +18°C° 0 mm 3 mps 713 mmHg 44%
17:00 +16°C° 0 mm 2 mps 713 mmHg 48%
18:00 +16°C° 0 mm 2 mps 713 mmHg 49%
19:00 +15°C° 0 mm 2 mps 713 mmHg 50%
20:00 +15°C° 0 mm 2 mps 713 mmHg 51%
21:00 +15°C° 0 mm 2 mps 713 mmHg 51%
22:00 +15°C° 0 mm 1 mps 713 mmHg 51%
23:00 +15°C° 0 mm 1 mps 713 mmHg 51%

9 December, Wednesday

Time Temperature Precipitation Wind Pressure Humidity
00:00 +15°C° 0 mm 1 mps 713 mmHg 51%
01:00 +14°C° 0 mm 1 mps 713 mmHg 52%
02:00 +14°C° 0 mm 1 mps 713 mmHg 52%
03:00 +14°C° 0 mm 1 mps 713 mmHg 53%
04:00 +14°C° 0 mm 1 mps 713 mmHg 54%
05:00 +12°C° 0 mm 0 mps 713 mmHg 55%
06:00 +13°C° 0.1 mm 0 mps 714 mmHg 55%
07:00 +14°C° 0.1 mm 0 mps 714 mmHg 55%
08:00 +15°C° 0.1 mm 0 mps 714 mmHg 56%
09:00 +18°C° 0 mm 1 mps 715 mmHg 57%
10:00 +17°C° 0 mm 2 mps 715 mmHg 58%
11:00 +18°C° 0 mm 2 mps 715 mmHg 59%
12:00 +18°C° 0 mm 3 mps 715 mmHg 61%
13:00 +18°C° 0 mm 3 mps 715 mmHg 63%
14:00 +18°C° 0 mm 3 mps 714 mmHg 65%
15:00 +17°C° 0 mm 3 mps 714 mmHg 70%
16:00 +16°C° 0 mm 3 mps 714 mmHg 75%
17:00 +15°C° 0 mm 2 mps 714 mmHg 81%
18:00 +14°C° 0 mm 2 mps 714 mmHg 81%
19:00 +14°C° 0 mm 2 mps 715 mmHg 82%
20:00 +13°C° 0 mm 1 mps 715 mmHg 83%
21:00 +13°C° 0 mm 1 mps 715 mmHg 83%
22:00 +13°C° 0 mm 1 mps 715 mmHg 83%
23:00 +12°C° 0 mm 1 mps 715 mmHg 82%
Show more